sat.trackr.live / text

‹ back to catalog

GSAT0224 (GALILEO 28)

NORAD 49810 · 2021-116B

PAYLOAD ACTIVE UNKNOWN

§ Identity

Operator
Country
ESA
Launch date
2021-12-05
Launch site
FRGUI
Launch vehicle
Mass (kg)
RCS (m²)

Purposes: earth_obs, nav

External: N2YO · Heavens-Above · Gunter

§ Orbital elements

Epoch: 2026-05-23T04:02:27.054816Z

Period
844.69 min
Inclination
57.1703°
Eccentricity
0.0000531
Mean motion
1.70475835 rev/d
Perigee alt
23,220.4 km
Apogee alt
23,223.5 km
Semi-major
29,600.1 km
B*
0.0000e+0
RAAN
342.3482°
Arg perigee
126.1506°
Mean anomaly
231.6723°
Rev number
2,777

§ Raw data

GSAT0224 (GALILEO 28)1 49810U 21116B   26143.16836869 -.00000088  00000+0  00000+0 0  99912 49810  57.1703 342.3482 0000531 126.1506 231.6723  1.70475835 27770

JSON: /api/v1/satellites/49810 · /tle

For live sub-satellite position, see the globe view (requires WebGL).

§ Visibility from observer

Set your observer location to see the next 7 days of passes ≥ 10°. The values pass through the URL so the page stays shareable.

No JS? Fill the form by hand. The geolocation button needs JavaScript.